Location: Asheville, NC
(35.6000°N, 82.5500°W)
Time: 15:15:24
(UTC-04:00)

FALCONSAT 3 - Pass Details

Date: 15 March 2018
Orbit: 461 x 463 km, 35.4° (Epoch: 24 June)

Event Time Altitude Azimuth Distance (km) Brightness Sun altitude
Exits shadow 07:02:48 11° 273° (W) 1,525 ? -8.6°
Maximum altitude 07:06:13 59° 194° (SSW) 536 ? -7.9°
Drops below altitude 10° 07:09:50 10° 115° (ESE) 1,602 ? -7.2°
Sets 07:12:01 0° 111° (ESE) 2,475 ? -6.7°
